| time (UTC) | temp F | wind direction | speed knots | gust knots | rain 1hr in | rain 24hr in | rain mn in | humidity % | barometer mb |
| 20260504173120 | 72 | 218 | 3.5 | 7.8 | 0.00 | 0.02 | 0.00 | 32 | 1009.2 |
| 20260504172118 | 71 | 295 | 2.6 | 7.8 | 0.00 | 0.02 | 0.00 | 31 | 1009.4 |
| 20260504171118 | 70 | 338 | 4.3 | 9.6 | 0.00 | 0.02 | 0.00 | 30 | 1009.5 |
| 20260504170117 | 70 | 258 | 3.5 | 7.0 | 0.00 | 0.02 | 0.00 | 30 | 1009.5 |
| 20260504160114 | 67 | 249 | 3.5 | 8.7 | 0.00 | 0.02 | 0.00 | 33 | 1010.2 |
| 20260504151113 | 66 | 254 | 4.3 | 8.7 | 0.00 | 0.02 | 0.00 | 35 | 1011.0 |
| 20260504150113 | 66 | 253 | 3.5 | 7.8 | 0.00 | 0.02 | 0.00 | 34 | 1011.0 |
| 20260504141111 | 64 | 210 | 3.5 | 7.8 | 0.00 | 0.02 | 0.00 | 37 | 1011.4 |
| 20260504140110 | 64 | 233 | 2.6 | 6.1 | 0.00 | 0.02 | 0.00 | 39 | 1011.6 |
| 20260504130110 | 59 | 235 | 1.7 | 3.5 | 0.00 | 0.02 | 0.00 | 43 | 1011.9 |
| 20260504120105 | 51 | 228 | 0.9 | 2.6 | 0.00 | 0.02 | 0.00 | 58 | 1012.5 |
| 20260504081957 | 38 | 0 | 0.0 | 0.0 | 0.00 | 0.02 | 0.00 | 81 | 1011.5 |
| 20260504080956 | 39 | 0 | 0.0 | 0.0 | 0.00 | 0.02 | 0.00 | 80 | 1011.6 |
| 20260504045918 | 38 | 0 | 0.0 | 0.0 | 0.00 | 0.02 | 0.00 | 79 | 1012.0 |
| 20260504044919 | 38 | 0 | 0.0 | 0.9 | 0.00 | 0.02 | 0.00 | 78 | 1012.0 |
| 20260504043919 | 39 | 0 | 0.0 | 0.0 | 0.00 | 0.02 | 0.00 | 78 | 1011.9 |
| 20260504042918 | 39 | 0 | 0.0 | 0.0 | 0.00 | 0.02 | 0.00 | 78 | 1012.0 |
| 20260504041917 | 39 | 0 | 0.0 | 0.0 | 0.00 | 0.02 | 0.00 | 77 | 1011.9 |
| 20260504040917 | 39 | 0 | 0.0 | 0.0 | 0.00 | 0.02 | 0.00 | 76 | 1012.0 |
| 20260504035915 | 40 | 0 | 0.0 | 0.9 | 0.00 | 0.02 | 0.02 | 76 | 1011.8 |
| 20260504034916 | 40 | 0 | 0.0 | 0.0 | 0.00 | 0.02 | 0.02 | 75 | 1011.8 |
| 20260504033915 | 40 | 0 | 0.0 | 0.9 | 0.00 | 0.02 | 0.02 | 74 | 1011.8 |
| 20260504031913 | 40 | 216 | 0.0 | 0.9 | 0.00 | 0.02 | 0.02 | 71 | 1011.6 |
| 20260504030914 | 41 | 0 | 0.0 | 0.9 | 0.00 | 0.02 | 0.02 | 70 | 1011.5 |
| 20260504025911 | 41 | 0 | 0.0 | 0.9 | 0.00 | 0.02 | 0.02 | 69 | 1011.5 |
| 20260504024911 | 42 | 0 | 0.0 | 0.9 | 0.00 | 0.02 | 0.02 | 67 | 1011.6 |
| 20260504023911 | 42 | 168 | 0.0 | 0.9 | 0.00 | 0.02 | 0.02 | 67 | 1011.7 |
| 20260504022910 | 43 | 0 | 0.0 | 0.9 | 0.00 | 0.02 | 0.02 | 68 | 1011.6 |
| 20260504021910 | 43 | 0 | 0.0 | 0.0 | 0.00 | 0.02 | 0.02 | 63 | 1011.5 |
| 20260504020910 | 43 | 0 | 0.0 | 0.9 | 0.00 | 0.02 | 0.02 | 63 | 1011.4 |
| 20260504015907 | 44 | 0 | 0.0 | 0.9 | 0.00 | 0.02 | 0.02 | 64 | 1011.3 |
| 20260504014909 | 44 | 0 | 0.0 | 0.9 | 0.00 | 0.02 | 0.02 | 64 | 1011.3 |
| 20260504013910 | 45 | 0 | 0.0 | 0.9 | 0.00 | 0.02 | 0.02 | 60 | 1011.2 |
| 20260504012910 | 46 | 0 | 0.0 | 0.9 | 0.00 | 0.02 | 0.02 | 56 | 1011.1 |
| 20260504011909 | 46 | 0 | 0.0 | 0.9 | 0.00 | 0.02 | 0.02 | 55 | 1011.0 |
| 20260504010906 | 47 | 190 | 0.0 | 0.9 | 0.00 | 0.02 | 0.02 | 53 | 1010.9 |
| 20260504005906 | 47 | 0 | 0.0 | 0.0 | 0.00 | 0.02 | 0.02 | 52 | 1010.7 |
| 20260504004908 | 48 | 12 | 0.0 | 0.9 | 0.00 | 0.02 | 0.02 | 52 | 1010.5 |
| 20260504003908 | 49 | 0 | 0.0 | 0.9 | 0.00 | 0.02 | 0.02 | 50 | 1010.4 |
| 20260504002909 | 50 | 0 | 0.0 | 0.9 | 0.00 | 0.02 | 0.02 | 43 | 1010.2 |
| 20260504001907 | 51 | 0 | 0.0 | 0.0 | 0.00 | 0.02 | 0.02 | 40 | 1010.1 |
| 20260504000904 | 52 | 0 | 0.0 | 1.7 | 0.00 | 0.02 | 0.02 | 37 | 1009.9 |
| 20260503235904 | 53 | 0 | 0.0 | 1.7 | 0.00 | 0.02 | 0.02 | 34 | 1009.8 |
| 20260503234905 | 54 | 0 | 0.9 | 6.1 | 0.00 | 0.02 | 0.02 | 33 | 1009.8 |
| 20260503233904 | 54 | 110 | 0.9 | 5.2 | 0.00 | 0.02 | 0.02 | 33 | 1009.6 |
| 20260503232905 | 54 | 0 | 0.9 | 6.1 | 0.00 | 0.02 | 0.02 | 35 | 1009.6 |
| 20260503231902 | 55 | 241 | 0.9 | 5.2 | 0.00 | 0.02 | 0.02 | 33 | 1009.5 |
| 20260503230901 | 55 | 247 | 0.9 | 3.5 | 0.00 | 0.02 | 0.02 | 35 | 1009.5 |
| 20260503225901 | 55 | 176 | 0.9 | 7.0 | 0.00 | 0.02 | 0.02 | 34 | 1009.6 |
| 20260503224902 | 55 | 292 | 0.9 | 7.0 | 0.00 | 0.02 | 0.02 | 34 | 1009.4 |
| 20260503223902 | 56 | 69 | 1.7 | 6.1 | 0.00 | 0.02 | 0.02 | 33 | 1009.4 |
| 20260503222902 | 56 | 206 | 1.7 | 7.8 | 0.00 | 0.02 | 0.02 | 34 | 1009.4 |
| 20260503221857 | 57 | 250 | 1.7 | 6.1 | 0.00 | 0.02 | 0.02 | 33 | 1009.5 |
| 20260503220857 | 58 | 273 | 1.7 | 5.2 | 0.00 | 0.02 | 0.02 | 32 | 1009.6 |
| 20260503215857 | 58 | 0 | 1.7 | 7.0 | 0.00 | 0.02 | 0.02 | 33 | 1009.6 |
| 20260503214857 | 58 | 251 | 1.7 | 6.1 | 0.00 | 0.02 | 0.02 | 33 | 1009.5 |
| 20260503213858 | 57 | 0 | 1.7 | 5.2 | 0.00 | 0.02 | 0.02 | 35 | 1009.6 |
| 20260503212853 | 55 | 241 | 0.9 | 4.3 | 0.00 | 0.02 | 0.02 | 37 | 1009.6 |
| 20260503211855 | 55 | 298 | 1.7 | 7.8 | 0.00 | 0.02 | 0.02 | 37 | 1009.5 |
| 20260503210856 | 56 | 211 | 2.6 | 7.0 | 0.00 | 0.02 | 0.02 | 36 | 1009.7 |
| 20260503205856 | 55 | 229 | 1.7 | 7.0 | 0.01 | 0.02 | 0.02 | 37 | 1009.7 |
| 20260503204856 | 55 | 247 | 1.7 | 7.0 | 0.01 | 0.02 | 0.02 | 38 | 1009.5 |
| 20260503203852 | 54 | 248 | 3.5 | 8.7 | 0.01 | 0.02 | 0.02 | 38 | 1009.5 |
| 20260503202851 | 54 | 216 | 1.7 | 6.1 | 0.01 | 0.02 | 0.02 | 38 | 1009.4 |
| 20260503201849 | 53 | 251 | 3.5 | 9.6 | 0.02 | 0.02 | 0.02 | 39 | 1009.3 |
| 20260503200849 | 55 | 217 | 3.5 | 10.4 | 0.02 | 0.02 | 0.02 | 37 | 1009.4 |
| 20260503195851 | 54 | 230 | 1.7 | 7.0 | 0.01 | 0.01 | 0.01 | 37 | 1009.4 |
| 20260503194847 | 55 | 266 | 1.7 | 7.0 | 0.01 | 0.01 | 0.01 | 37 | 1009.3 |
| 20260503193848 | 54 | 56 | 2.6 | 7.0 | 0.01 | 0.01 | 0.01 | 38 | 1009.3 |
| 20260503192849 | 56 | 210 | 3.5 | 12.2 | 0.01 | 0.01 | 0.01 | 36 | 1009.4 |
| 20260503191849 | 55 | 243 | 2.6 | 7.8 | 0.00 | 0.00 | 0.00 | 36 | 1009.3 |
| 20260503190849 | 56 | 142 | 1.7 | 7.0 | 0.00 | 0.00 | 0.00 | 36 | 1009.4 |
| 20260503185850 | 55 | 22 | 2.6 | 9.6 | 0.00 | 0.00 | 0.00 | 37 | 1009.6 |
| 20260503184848 | 53 | 216 | 2.6 | 9.6 | 0.00 | 0.00 | 0.00 | 39 | 1009.5 |
| 20260503183847 | 53 | 243 | 3.5 | 7.8 | 0.00 | 0.00 | 0.00 | 38 | 1009.3 |
| 20260503182848 | 54 | 238 | 1.7 | 7.8 | 0.00 | 0.00 | 0.00 | 39 | 1009.4 |
| 20260503181846 | 54 | 106 | 2.6 | 8.7 | 0.00 | 0.00 | 0.00 | 38 | 1009.3 |
| 20260503180846 | 54 | 183 | 3.5 | 9.6 | 0.00 | 0.00 | 0.00 | 38 | 1009.5 |
| 20260503175846 | 55 | 239 | 3.5 | 10.4 | 0.00 | 0.00 | 0.00 | 40 | 1009.4 |
| 20260503174845 | 54 | 132 | 2.6 | 7.8 | 0.00 | 0.01 | 0.00 | 39 | 1009.5 |
| 20260503173845 | 54 | 143 | 3.5 | 9.6 | 0.00 | 0.01 | 0.00 | 40 | 1009.7 |